Time,B instrument,Bx,By,Bz,sigma B,Ion instrument,Status,Tp_par,Tp_perp,carrot,r_sun,clat,clong,earth_he_angle,n_p,vp_x,vp_y,vp_z,vth_p_par,vth_p_perp
1980-11-02 00:05:36,-1,nan,nan,nan,nan,1,3,nan,nan,1701,0.66177368,-6.1578341,319.1499,94.657715,nan,382.183,14.278,-11.8178,nan,nan
1980-11-02 00:48:48,-1,nan,nan,nan,nan,1,3,nan,nan,1701,0.66144818,-6.160881,318.76773,94.673965,nan,369.568,10.2514,-9.89442,nan,nan
1980-11-02 01:32:00,-1,nan,nan,nan,nan,1,3,nan,nan,1701,0.66111487,-6.1639967,318.38986,94.690643,nan,377.666,-18.4836,-43.9474,nan,nan
1980-11-02 02:15:12,-1,nan,nan,nan,nan,1,3,nan,nan,1701,0.66078895,-6.1670418,318.01166,94.70697,nan,381.896,-5.90078,-43.9406,nan,nan
1980-11-02 02:58:24,-1,nan,nan,nan,nan,1,3,nan,nan,1701,0.66046292,-6.1700869,317.63351,94.723343,nan,392.651,24.1253,-34.5237,nan,nan
1980-11-02 04:51:20,-1,nan,nan,nan,nan,1,3,nan,nan,1701,0.65960521,-6.1780815,316.6416,94.766602,nan,381.406,16.2401,-36.1041,nan,nan
1980-11-02 04:52:41,-1,nan,nan,nan,nan,1,3,nan,nan,1701,0.65959764,-6.1781521,316.63028,94.766983,nan,376.283,14.742,-39.5048,nan,nan
1980-11-02 04:54:02,-1,nan,nan,nan,nan,1,3,nan,nan,1701,0.65958244,-6.1782932,316.61932,94.767761,nan,371.151,10.8629,-37.4441,nan,nan
1980-11-02 04:54:30,-1,nan,nan,nan,nan,1,3,nan,nan,1701,0.65958244,-6.1782932,316.61542,94.767761,nan,377.396,12.1181,-41.1817,nan,nan
1980-11-02 04:55:51,-1,nan,nan,nan,nan,1,3,nan,nan,1701,0.65957481,-6.1783648,316.6041,94.768143,nan,374.825,7.42165,-43.5637,nan,nan
1980-11-02 04:57:12,-1,nan,nan,nan,nan,1,3,nan,nan,1701,0.65955967,-6.1785059,316.58923,94.768906,nan,373.969,17.9152,-37.0617,nan,nan
1980-11-02 04:58:33,-1,nan,nan,nan,nan,1,3,nan,nan,1701,0.65955204,-6.1785765,316.57788,94.769287,nan,361.867,21.4997,-27.2953,nan,nan
1980-11-02 04:59:54,-1,nan,nan,nan,nan,1,3,nan,nan,1701,0.65954447,-6.178647,316.56656,94.769669,nan,373.512,21.5294,-34.6997,nan,nan
1980-11-02 05:01:15,1,1.91429,-9.2,0.357143,0.274048,1,1,82139.7,63136.3,1701,0.65952927,-6.1787891,316.5556,94.770447,9.74062,375.421,22.4612,-19.8139,36.8243,32.2848
1980-11-02 05:02:36,1,1.0,-9.21429,0.442857,0.428571,1,1,66874.8,65600.0,1701,0.65952164,-6.1788597,316.54428,94.770828,10.0511,378.983,30.1295,-15.9594,33.2269,32.9086
1980-11-02 05:03:57,1,4.78571,-6.18571,2.92857,0.394865,1,1,81408.4,58937.0,1701,0.65951407,-6.1789303,316.53293,94.77121,8.7817,364.537,11.5546,-27.7452,36.66,31.1926
1980-11-02 05:05:18,1,3.77143,-6.94286,3.02857,0.289264,1,1,53353.1,68356.2,1701,0.65949887,-6.1790714,316.5181,94.771988,8.62508,365.058,20.5383,-32.8651,29.6782,33.5929
1980-11-02 05:06:39,1,-0.228571,-9.34286,1.72857,0.576407,1,1,110147.0,72792.3,1701,0.65949124,-6.179142,316.50674,94.772369,10.7224,383.87,26.5842,-29.681,42.6426,34.6658
1980-11-02 05:08:00,1,-0.414286,-6.74286,4.68571,0.63181,1,1,74085.2,92420.3,1701,0.6594761,-6.1792831,316.49582,94.773148,10.0881,388.005,20.3061,-42.4866,34.9723,39.0608
1980-11-02 05:09:21,1,0.228571,-6.01429,4.78571,2.04351,1,1,79509.2,90719.2,1701,0.65946847,-6.1793547,316.48447,94.773529,10.7626,373.385,5.06434,-48.3606,36.2299,38.6997
1980-11-02 05:10:42,1,-3.075,-8.25,2.525,0.40466,1,1,78963.9,76731.9,1701,0.65946084,-6.1794252,316.47314,94.773911,10.8311,395.788,29.1516,-29.6144,36.1054,35.5915
1980-11-02 05:12:03,1,-3.0625,-8.7,2.0875,0.475329,1,1,107337.0,79872.5,1701,0.6594457,-6.1795664,316.46219,94.774689,10.9187,401.907,21.7218,-32.8643,42.0951,36.3125
1980-11-02 05:13:24,1,-3.65,-8.6625,2.3125,0.275568,1,1,111873.0,66344.4,1701,0.65943807,-6.179637,316.45087,94.77507,10.2467,402.515,24.1915,-30.5113,42.9754,33.0948
1980-11-02 05:14:45,1,-1.55,-7.425,3.6875,2.29575,1,1,100708.0,69014.7,1701,0.65943044,-6.1797075,316.43561,94.775452,10.4269,405.736,20.806,-29.7054,40.7746,33.7543
1980-11-02 05:16:06,1,-0.242857,-7.54286,4.31429,0.481494,1,1,115807.0,85388.8,1701,0.6594153,-6.1798487,316.42468,94.77623,11.4853,386.037,19.8575,-37.341,43.7246,37.5455
1980-11-02 05:17:27,1,0.1875,-7.375,4.4875,0.434813,1,1,89995.7,78964.6,1701,0.65940768,-6.1799202,316.41333,94.776611,10.7072,380.475,18.3587,-41.3885,38.5451,36.1056
1980-11-02 05:18:48,1,0.2,-5.64286,5.24286,1.76369,1,1,72511.8,78655.4,1701,0.65940005,-6.1799908,316.40201,94.776993,9.40617,377.423,9.66046,-51.0705,34.5989,36.0348
1980-11-02 06:19:05,-1,nan,nan,nan,nan,1,3,nan,nan,1701,0.65893638,-6.1843014,315.87476,94.800522,nan,380.546,35.7589,-17.5536,nan,nan
1980-11-02 06:20:26,-1,nan,nan,nan,nan,1,3,nan,nan,1701,0.65892881,-6.1843719,315.8595,94.800903,nan,370.12,32.9894,-0.0818916,nan,nan
1980-11-02 06:21:47,1,-2.57143,-8.57143,3.38571,0.863311,1,1,156697.0,80080.2,1701,0.65892118,-6.1844425,315.84818,94.8013,11.5595,389.21,26.4194,-25.4721,50.8614,36.3597
1980-11-02 06:23:08,-1,nan,nan,nan,nan,1,4,nan,nan,1701,0.65890598,-6.1845837,315.83722,94.802063,nan,nan,nan,nan,nan,nan
1980-11-02 06:24:30,1,-0.414286,-9.15714,-3.0,0.760236,1,1,177304.0,67138.7,1701,0.65889835,-6.1846542,315.8259,94.80246,12.1543,386.781,27.1635,-3.17142,54.1024,33.2923
1980-11-02 06:25:51,1,0.3125,-9.2,-1.9625,0.929213,1,1,79743.0,68737.2,1701,0.65889078,-6.1847248,315.81458,94.802841,10.2093,385.521,33.3342,-2.67685,36.2831,33.6863
1980-11-02 06:27:12,1,-0.557143,-7.85714,-4.87143,0.821894,1,1,147233.0,77397.4,1701,0.65887558,-6.184866,315.80362,94.803619,12.3569,391.151,22.0547,3.44319,49.3015,35.7455
1980-11-02 06:28:33,1,-1.55,-7.2125,3.15,2.578,1,1,98073.4,72501.8,1701,0.65886796,-6.1849365,315.78839,94.804001,11.1119,380.266,30.0641,-20.016,40.2377,34.5965
1980-11-02 06:29:54,1,-3.54286,-7.07143,3.95714,0.327015,1,1,146604.0,80249.3,1701,0.65886039,-6.1850071,315.77704,94.804382,12.5217,395.672,13.7587,-31.9295,49.1961,36.3981
1980-11-02 06:31:15,1,-1.975,-8.1625,2.6875,0.587633,1,1,146753.0,92272.4,1701,0.65884513,-6.1851492,315.76611,94.805161,12.9935,392.442,16.1566,-30.5085,49.2211,39.0296
1980-11-02 06:32:36,1,-2.175,-8.2875,2.325,0.538371,1,1,139220.0,78517.6,1701,0.65883756,-6.1852198,315.75476,94.805542,11.7024,394.99,17.9516,-27.3729,47.9411,36.0032
1980-11-02 06:33:57,1,-2.54286,-7.32857,1.68571,3.62688,1,1,61182.6,80989.8,1701,0.65882993,-6.1852903,315.74344,94.805939,11.1196,371.952,32.472,-2.20599,31.7813,36.5656
1980-11-02 06:35:18,1,-3.775,-7.6875,3.05,0.274716,1,1,131304.0,80144.8,1701,0.65881473,-6.1854315,315.73248,94.806702,11.7869,400.378,19.028,-29.1856,46.5583,36.3744
1980-11-02 06:36:39,1,-4.7625,-7.7375,2.0625,0.273004,1,1,165041.0,79253.0,1701,0.6588071,-6.1855021,315.71725,94.807098,11.4987,404.163,19.7418,-23.9399,52.198,36.1714
1980-11-02 06:38:00,1,-4.825,-8.1,1.175,0.344601,1,1,130225.0,75279.2,1701,0.6587919,-6.1856432,315.7063,94.807861,11.6338,407.712,18.0792,-21.2404,46.3665,35.2529
1980-11-02 06:39:21,1,-4.8,-8.275,0.8875,0.40984,1,1,142164.0,76361.5,1701,0.65878433,-6.1857138,315.69498,94.808258,12.4937,401.477,22.4173,-18.5061,48.4453,35.5055
1980-11-02 06:40:42,1,-5.3125,-8.175,-0.6,0.620861,1,1,132795.0,74611.5,1701,0.6587767,-6.1857843,315.68365,94.80864,11.3282,407.436,17.5215,-16.4159,46.8219,35.0962
1980-11-02 06:42:03,1,-4.4,-8.65,-0.1,0.37081,1,1,140116.0,76408.6,1701,0.6587615,-6.1859255,315.6727,94.809418,12.1371,402.864,26.6485,-14.1629,48.0952,35.5164
1980-11-02 06:43:24,1,-4.0125,-8.6375,-0.2375,1.38231,1,1,137643.0,84355.9,1701,0.65875387,-6.1859961,315.66138,94.809799,12.1064,404.5,20.2946,-12.0404,47.6688,37.3178
1980-11-02 06:44:45,1,-2.15,-8.425,-2.4875,1.80983,1,1,176111.0,70078.0,1701,0.6587463,-6.1860666,315.65002,94.810181,11.2192,394.997,24.1644,3.83312,53.9201,34.0133
1980-11-02 06:46:06,1,-2.0625,-8.875,-1.6875,0.728226,1,1,185643.0,85756.8,1701,0.6587311,-6.1862087,315.63519,94.810959,12.075,393.238,25.1795,-9.83452,55.3602,37.6264
1980-11-02 06:47:27,1,-0.557143,-9.2,-1.32857,1.07381,1,1,102889.0,82769.5,1701,0.65872347,-6.1862793,315.62384,94.81134,11.4399,382.851,30.8648,0.822676,41.2137,36.9652
1980-11-02 06:48:48,1,-0.8,-9.2,0.457143,0.399489,1,1,177414.0,77927.3,1701,0.65871584,-6.1863499,315.61252,94.811737,12.1956,386.779,27.0606,-13.3951,54.1192,35.8676
1980-11-02 06:50:09,1,-2.0,-9.225,-1.9625,0.54011,1,1,106998.0,90095.0,1701,0.65870064,-6.186491,315.60156,94.8125,12.1511,394.065,29.0585,-9.11283,42.0286,38.5663
1980-11-02 06:51:30,1,-1.35,-8.775,-2.4125,1.07493,1,1,123586.0,106732.0,1701,0.65869308,-6.1865616,315.59024,94.812897,12.2037,394.05,25.8654,3.27087,45.1692,41.9764
1980-11-02 06:52:51,1,-0.2,-8.61429,2.01429,0.555125,1,1,90608.5,80210.6,1701,0.65868545,-6.1866322,315.57892,94.813278,10.8942,386.453,28.3996,-20.5155,38.6761,36.3893
1980-11-02 06:54:12,1,-0.675,-8.7875,2.6625,0.320644,1,1,110837.0,94452.4,1701,0.65867025,-6.1867733,315.56406,94.814056,11.7506,385.286,23.0136,-22.6546,42.7759,39.4879
1980-11-02 06:55:33,1,-0.285714,-9.17143,1.25714,0.639196,1,1,116109.0,87459.6,1701,0.65866262,-6.1868439,315.55273,94.814438,11.506,385.209,22.7763,-27.8454,43.7816,37.9981
1980-11-02 06:56:54,1,0.0125,-9.3,0.55,0.257087,1,1,143702.0,90901.7,1701,0.65865505,-6.1869144,315.54138,94.814819,12.7124,381.316,26.019,-9.99298,48.7067,38.7386
1980-11-02 06:58:15,1,-0.0714286,-9.34286,0.542857,0.188442,1,1,91321.1,93778.9,1701,0.65863985,-6.1870556,315.53046,94.815598,12.3524,384.457,29.4528,-16.0138,38.8279,39.3469
1980-11-02 06:59:36,1,-0.325,-9.275,-0.325,0.477624,1,1,132247.0,93987.0,1701,0.65863222,-6.1871262,315.5191,94.815979,12.3374,385.267,23.3736,-9.75458,46.7251,39.3905
1980-11-02 07:00:57,1,-0.114286,-9.42857,-0.1,0.573567,1,1,86700.0,94969.9,1701,0.65862459,-6.1871977,315.50778,94.816376,12.8282,386.813,28.9208,-9.92117,37.8327,39.596
1980-11-02 07:02:26,1,1.45714,-4.3,7.74286,0.281396,1,1,204748.0,88144.3,1701,0.65860939,-6.1873388,315.49292,94.817139,13.489,377.546,-63.567,-53.9484,58.139,38.1465
1980-11-02 07:03:47,-1,nan,nan,nan,nan,1,3,nan,nan,1701,0.65860176,-6.1874094,315.4816,94.817535,nan,376.976,3.68106,-45.8097,nan,nan
1980-11-02 07:05:08,1,1.5,-4.6875,6.9,0.464859,1,1,90869.6,84381.5,1701,0.65858656,-6.1875505,315.47067,94.818314,10.705,372.429,7.16443,-46.3313,38.7318,37.3234
1980-11-02 07:06:29,1,1.025,-4.8875,6.525,0.487179,1,1,114761.0,87588.6,1701,0.65857893,-6.1876211,315.45932,94.818695,10.7949,375.055,5.39987,-45.241,43.5266,38.0261
1980-11-02 07:07:42,1,0.0571429,-4.7,6.5,0.255551,1,1,131615.0,99456.0,1701,0.65857136,-6.1876917,315.448,94.819092,12.0293,379.626,5.68831,-41.6075,46.6133,40.5204
1980-11-02 07:09:03,1,0.475,-4.1125,6.675,1.01235,1,1,95591.7,89354.0,1701,0.6585561,-6.1878328,315.43707,94.81987,10.8776,378.526,-2.42407,-52.4168,39.7254,38.4074
1980-11-02 07:10:24,1,1.47143,-7.51429,4.85714,0.302372,1,1,91157.2,71806.2,1701,0.65854853,-6.1879034,315.42181,94.820251,10.5156,372.132,20.665,-34.4173,38.793,34.4302
1980-11-02 07:11:45,1,1.38571,-7.08571,4.35714,0.762916,1,1,111745.0,91744.4,1701,0.6585409,-6.187974,315.41049,94.820633,11.8278,375.554,13.3985,-38.6809,42.9508,38.9177
1980-11-02 07:13:06,1,1.78571,-6.98571,3.81429,1.03549,1,1,109035.0,73770.2,1701,0.65852571,-6.1881151,315.39954,94.821411,10.7688,363.279,17.4001,-23.4684,42.4269,34.8978
1980-11-02 07:14:27,1,0.828571,-4.12857,6.5,0.749149,1,1,121362.0,111878.0,1701,0.65851808,-6.1881857,315.38821,94.821808,12.1907,376.877,2.30952,-43.4475,44.7609,42.9763
1980-11-02 07:18:30,1,5.02857,-4.47143,4.24286,0.303718,1,1,97806.5,78541.1,1701,0.66012841,-6.336442,315.03473,94.507385,10.0372,357.173,3.38834,-30.0821,40.1829,36.0086
1980-11-02 07:18:47,-1,nan,nan,nan,nan,1,4,nan,nan,1701,0.65848762,-6.1884689,315.35071,94.823364,nan,nan,nan,nan,nan,nan
1980-11-02 07:20:08,1,4.11429,-5.6,3.92857,1.10988,1,1,96710.7,114097.0,1701,0.65847242,-6.1886101,315.33978,94.824142,11.9938,375.012,-7.97432,-46.0693,39.9572,43.4005
1980-11-02 07:20:09,1,4.11429,-5.6,3.92857,1.10988,1,1,170525.0,72673.3,1701,0.65847999,-6.1885395,315.33939,94.823746,11.2283,377.83,16.2685,-25.7182,53.0582,34.6374
1980-11-02 07:21:12,1,3.9,-4.94286,4.42857,0.835928,1,1,112623.0,104750.0,1701,0.65846479,-6.1886806,315.32843,94.824524,11.6476,361.915,-3.8509,-29.8044,43.1192,41.5847
1980-11-02 07:22:33,1,4.15714,-5.24286,4.4,0.26573,1,1,115972.0,73448.2,1701,0.65845716,-6.1887512,315.31711,94.824905,10.743,361.769,6.38054,-28.2656,43.7557,34.8216
1980-11-02 07:23:54,1,3.65714,-5.62857,4.08571,0.325137,1,1,113931.0,64899.7,1701,0.65844959,-6.1888218,315.30579,94.825302,9.45068,365.429,12.389,-25.6952,43.3689,32.7325
1980-11-02 07:25:15,1,2.84286,-5.38571,4.7,0.367562,1,1,128420.0,91421.1,1701,0.65843433,-6.1889629,315.29483,94.82608,11.698,367.895,12.804,-33.5081,46.044,38.8491
1980-11-02 07:26:36,1,0.585714,-8.07143,2.44286,0.995705,1,1,155348.0,79864.6,1701,0.65842676,-6.1890335,315.2796,94.826462,10.3126,379.631,14.1039,-25.445,50.6419,36.3107
1980-11-02 07:27:57,1,2.47143,-6.72857,2.82857,2.69716,1,1,137267.0,86097.9,1701,0.65841913,-6.1891041,315.26828,94.826859,13.2209,384.832,22.908,-22.0393,47.6037,37.7011
1980-11-02 07:29:18,1,5.8,-0.171429,2.72857,1.48076,1,1,121359.0,78963.5,1701,0.65840393,-6.1892452,315.25732,94.827637,10.3797,355.862,-12.7358,-21.3689,44.7603,36.1053
1980-11-02 07:30:39,1,5.97143,0.771429,1.54286,0.359705,1,1,155944.0,67020.7,1701,0.6583963,-6.1893167,315.246,94.828018,10.7517,357.081,-18.6402,-15.0322,50.7391,33.2631
1980-11-02 07:32:00,1,5.84286,-0.8,2.34286,0.416497,1,1,120629.0,83931.2,1701,0.6583811,-6.1894579,315.23505,94.828796,11.488,356.582,-17.5714,-21.5318,44.6256,37.2237
1980-11-02 07:33:21,1,5.0,0.3,3.04286,0.266497,1,1,131086.0,108325.0,1701,0.65837348,-6.1895285,315.22372,94.829178,12.3211,356.523,-19.9702,-22.0559,46.5196,42.2884
1980-11-02 07:34:42,1,4.82857,1.2,2.18571,0.597956,1,1,85910.3,106160.0,1701,0.65836585,-6.189599,315.2085,94.829575,12.3903,354.358,-25.3565,-20.9438,37.66,41.8638
1980-11-02 07:36:03,-1,nan,nan,nan,nan,1,3,nan,nan,1701,0.65835065,-6.1897402,315.19754,94.830353,nan,356.164,-9.34095,-24.2213,nan,nan
1980-11-02 07:37:24,-1,nan,nan,nan,nan,1,3,nan,nan,1701,0.65834302,-6.1898108,315.18622,94.830734,nan,359.567,6.00644,-24.4804,nan,nan
1980-11-02 07:38:45,-1,nan,nan,nan,nan,1,3,nan,nan,1701,0.65833545,-6.1898813,315.1749,94.831131,nan,378.252,22.3042,-14.2528,nan,nan
1980-11-02 07:40:06,-1,nan,nan,nan,nan,1,3,nan,nan,1701,0.65832019,-6.1900225,315.16394,94.831909,nan,384.702,17.8421,-4.81939,nan,nan
1980-11-02 07:41:27,-1,nan,nan,nan,nan,1,3,nan,nan,1701,0.65831256,-6.190093,315.15262,94.832291,nan,384.205,25.9508,-1.1545,nan,nan
1980-11-02 07:42:48,-1,nan,nan,nan,nan,1,3,nan,nan,1701,0.65830499,-6.1901636,315.14127,94.832672,nan,386.752,16.7012,2.07734,nan,nan
1980-11-02 07:48:11,-1,nan,nan,nan,nan,1,3,nan,nan,1701,0.65825933,-6.190588,315.09283,94.835007,nan,402.76,12.1345,0.364953,nan,nan
1980-11-02 07:49:32,1,-4.72857,-7.37143,-2.18571,0.523333,1,1,161823.0,76832.8,1701,0.6582517,-6.1906586,315.08151,94.835403,12.535,412.474,6.74794,-5.29389,51.6866,35.6149
1980-11-02 07:50:54,1,-3.025,-8.5875,-3.325,0.885914,1,1,118666.0,51664.6,1701,0.65824407,-6.1907291,315.07016,94.835785,11.929,401.111,15.2803,0.540851,44.261,29.2048
1980-11-02 07:52:15,1,-3.0,-9.2625,-1.225,0.619854,1,1,138585.0,50368.1,1701,0.65822887,-6.1908703,315.05533,94.836563,11.5754,401.343,25.1952,-9.98467,47.8317,28.836
1980-11-02 07:53:36,1,-2.4125,-9.45,-1.6875,0.512042,1,1,117699.0,61497.7,1701,0.65822124,-6.1909409,315.04398,94.836945,11.4921,391.801,21.8529,-3.69681,44.0803,31.8631
1980-11-02 07:54:57,1,-2.1,-9.6875,-1.3,0.382222,1,1,97289.3,58904.1,1701,0.65821368,-6.1910114,315.03265,94.837341,11.3833,392.838,28.668,-7.49651,40.0766,31.1839
1980-11-02 07:56:18,1,5.05714,-5.42857,-1.88571,1.0198,1,1,98844.6,68375.8,1701,0.65819842,-6.1911526,315.02173,94.83812,13.2778,357.138,1.22807,7.8089,40.3956,33.5977
1980-11-02 07:57:39,1,2.54286,-8.51429,-1.64286,0.593158,1,1,101429.0,57540.6,1701,0.65819085,-6.1912231,315.01038,94.838501,11.8884,374.368,26.5029,-1.79539,40.9204,30.8209
1980-11-02 07:59:00,1,0.142857,-9.12857,-1.07143,0.807617,1,1,81579.8,53778.2,1701,0.65817559,-6.1913643,314.99945,94.839279,11.461,371.209,22.0793,0.725502,36.6986,29.7962
1980-11-02 08:00:21,1,3.71429,-7.9,-0.514286,0.643333,1,1,95680.4,69940.0,1701,0.65816802,-6.1914358,314.98422,94.839676,12.2343,361.68,19.28,-4.07866,39.7438,33.9798
1980-11-02 08:01:42,1,3.01429,-7.94286,1.0,1.18477,1,1,77194.1,66044.5,1701,0.65816039,-6.1915064,314.97287,94.840057,12.3816,355.926,14.2053,-1.81521,35.6985,33.0199
1980-11-02 08:03:03,1,1.2,-9.47143,-1.38571,0.441241,1,1,73034.6,58883.6,1701,0.65814513,-6.1916475,314.96194,94.840836,11.4462,377.613,30.6695,-3.55864,34.7234,31.1785
1980-11-02 08:04:24,1,1.3,-8.97143,-2.32857,0.622044,1,1,124502.0,56819.1,1701,0.6581375,-6.1917181,314.95062,94.841232,12.8705,377.731,17.9627,-2.95276,45.3363,30.627
1980-11-02 08:05:45,1,1.87143,-8.91429,-1.75714,0.396412,1,1,125832.0,64974.2,1701,0.65812993,-6.1917887,314.93927,94.841614,13.1987,375.312,22.4944,3.92616,45.5778,32.7513
1980-11-02 08:07:06,1,0.871429,-9.0,-0.228571,0.859283,1,1,161847.0,59982.1,1701,0.65811467,-6.1919298,314.92834,94.842392,12.3273,380.092,16.3774,-3.08687,51.6905,31.468
1980-11-02 08:08:27,1,1.92857,-8.37143,-2.17143,1.08647,1,1,122004.0,69974.6,1701,0.65810704,-6.1920004,314.91312,94.842789,13.9372,367.773,17.3954,0.235631,44.8792,33.9882
1980-11-02 08:09:48,1,4.11429,-6.32857,-2.45714,0.498569,1,1,96741.8,77463.1,1701,0.65809941,-6.192071,314.90176,94.84317,12.4971,365.325,7.91578,6.61022,39.9636,35.7606
1980-11-02 08:11:09,1,3.48571,-6.01429,-3.74286,0.764786,1,1,129781.0,74066.6,1701,0.65808421,-6.1922121,314.89084,94.843948,12.0544,370.602,6.15037,10.156,46.2874,34.9679
1980-11-02 08:12:30,1,6.27143,0.314286,0.514286,0.670972,1,1,99388.3,81192.4,1701,0.65807658,-6.1922827,314.87952,94.844345,12.898,354.035,-29.4286,-14.6363,40.5066,36.6113
1980-11-02 08:13:51,1,6.27143,0.857143,0.514286,0.377964,1,1,65481.3,86986.3,1701,0.65806895,-6.1923532,314.86816,94.844727,10.9645,347.405,-31.5172,-12.3117,32.8789,37.8951
1980-11-02 08:15:12,1,6.22857,1.2,1.08571,0.355137,1,1,84730.1,78353.0,1701,0.65805376,-6.1924944,314.85724,94.84552,10.8565,354.081,-27.246,-12.6283,37.4004,35.9655
1980-11-02 08:16:33,1,6.0,-0.514286,2.05714,0.448125,1,1,75932.8,95220.3,1701,0.65804613,-6.192565,314.84201,94.845901,11.1345,353.409,-22.8995,-19.4507,35.4057,39.6481
1980-11-02 08:17:54,1,5.87143,0.0571429,1.94286,0.540974,1,1,93125.9,55240.7,1701,0.6580385,-6.1926355,314.83069,94.846298,11.81,348.814,-24.0782,-16.3518,39.2097,30.1986
1980-11-02 08:19:15,-1,nan,nan,nan,nan,1,4,nan,nan,1701,0.6580233,-6.1927767,314.81973,94.847076,nan,nan,nan,nan,nan,nan
1980-11-02 08:20:36,1,6.81429,-3.78571,0.5,0.437059,1,1,36084.0,54806.7,1701,0.65801567,-6.1928473,314.80841,94.847458,9.69293,341.066,-7.17046,-4.36275,24.4071,30.0798
1980-11-02 08:21:57,1,6.05714,-4.92857,-1.44286,0.87575,1,1,66377.2,96711.6,1701,0.65800804,-6.1929178,314.79709,94.847855,11.0817,348.779,4.38393,-8.74229,33.103,39.9574
1980-11-02 08:23:18,1,5.6,-4.3,-2.68571,0.527605,1,1,107118.0,115362.0,1701,0.65799284,-6.193059,314.78613,94.848633,12.7297,352.38,2.85823,4.7921,42.0522,43.6405
1980-11-02 08:24:39,1,4.38571,-5.92857,-3.82857,1.22691,1,1,66888.0,88424.7,1701,0.65798521,-6.1931295,314.7709,94.849014,11.5549,355.453,4.07004,14.9313,33.2301,38.2072
1980-11-02 08:26:00,1,5.0,-5.47143,-3.94286,0.314286,1,1,86153.1,71988.8,1701,0.65796995,-6.1932707,314.75995,94.849792,11.9322,360.437,9.06208,9.7622,37.7132,34.4739
1980-11-02 08:27:21,1,4.62857,-5.77143,-3.88571,0.64555,1,1,106787.0,86075.4,1701,0.65796232,-6.1933413,314.74863,94.850189,13.2058,367.529,17.0239,2.63283,41.9873,37.6962
1980-11-02 08:28:42,1,4.98571,-5.7,-3.17143,0.723371,1,1,106969.0,64887.6,1701,0.65795475,-6.1934118,314.7373,94.850571,11.9824,361.839,11.072,1.48319,42.0231,32.7295
1980-11-02 08:30:03,1,5.2,-6.51429,-1.28571,0.623027,1,1,102685.0,73738.1,1701,0.65793949,-6.193553,314.72638,94.851364,12.899,354.731,8.29117,-5.23893,41.1729,34.8902
1980-11-02 08:31:24,1,2.45714,-8.74286,-2.94286,0.519812,1,1,93984.0,57603.3,1701,0.65793186,-6.1936235,314.71503,94.851746,11.3078,367.151,18.1534,3.82679,39.3899,30.8377
1980-11-02 08:32:45,1,3.15714,-8.28571,-3.44286,0.545482,1,1,84825.6,61104.1,1701,0.65792423,-6.1936941,314.6998,94.852142,11.329,371.478,27.4091,1.34183,37.4215,31.7609
1980-11-02 08:34:06,1,5.55714,-6.35714,-2.64286,0.290671,1,1,93479.2,62974.2,1701,0.65790904,-6.1938353,314.68887,94.852921,12.1662,357.016,11.4179,4.9803,39.284,32.2433
1980-11-02 08:35:27,1,6.37143,-5.42857,-1.55714,0.431892,1,1,69184.1,65911.4,1701,0.65790141,-6.1939058,314.67752,94.853302,11.4298,348.585,8.18777,2.47873,33.7957,32.9866
1980-11-02 08:36:48,1,3.4,-5.98571,3.88571,0.844913,1,1,123693.0,67450.4,1701,0.65789378,-6.1939764,314.6662,94.853699,12.6882,361.383,11.3578,-25.0398,45.1888,33.3695
1980-11-02 08:38:09,1,4.08571,-6.48571,3.02857,0.412558,1,1,113726.0,69232.6,1701,0.65787858,-6.1941175,314.65527,94.854477,11.2957,359.07,10.5981,-23.3716,43.33,33.8075
1980-11-02 08:39:30,1,4.41429,-7.15714,0.971429,0.478091,1,1,119083.0,69965.9,1701,0.65787095,-6.1941881,314.64392,94.854858,12.5605,360.472,14.9519,-12.0426,44.3387,33.9861
1980-11-02 08:40:51,1,1.88571,-8.54286,1.04286,1.12776,1,1,81553.0,59980.3,1701,0.65786332,-6.1942587,314.6326,94.855255,12.0227,356.167,21.2615,0.0224114,36.6926,31.4675
1980-11-02 08:42:12,1,5.07143,-6.02857,-1.94286,0.545856,1,1,101783.0,65101.4,1701,0.65784812,-6.1943998,314.61777,94.856033,11.3655,355.046,13.9565,-0.915058,40.9916,32.7833
1980-11-02 08:43:33,1,1.14286,-9.82857,-1.85714,0.47937,1,1,66071.9,84366.9,1701,0.65784049,-6.1944704,314.60641,94.856415,13.8187,378.769,30.4983,-1.71155,33.0268,37.3202
1980-11-02 08:44:54,1,1.84286,-9.2,-1.51429,1.11135,1,1,129788.0,64784.3,1701,0.65783286,-6.194541,314.59509,94.856812,12.7315,377.317,23.345,-0.0479227,46.2887,32.7034
1980-11-02 08:46:15,1,3.61429,-8.25714,0.8,0.968483,1,1,84350.1,92147.7,1701,0.6578176,-6.1946821,314.58417,94.85759,13.1511,354.614,13.8794,1.50335,37.3165,39.0032
1980-11-02 08:47:36,1,5.91429,-6.17143,-2.07143,0.296923,1,1,74730.2,71535.1,1701,0.65781003,-6.1947527,314.57285,94.857986,12.4971,358.172,10.959,2.93007,35.1242,34.3651
1980-11-02 08:48:57,1,4.98571,-7.27143,0.485714,0.473804,1,1,101446.0,73168.0,1701,0.6578024,-6.1948233,314.56149,94.858368,12.5902,361.352,19.6568,-11.3633,40.9238,34.7551
1980-11-02 08:50:18,1,6.24286,-4.52857,-4.41429,0.570714,1,1,55163.7,62009.9,1701,0.65778714,-6.1949644,314.54666,94.859146,11.6099,357.911,9.14672,11.6811,30.1776,31.9955
1980-11-02 08:51:39,1,2.9,-9.05714,0.442857,0.491976,1,1,78259.8,63970.9,1701,0.65777957,-6.195035,314.53534,94.859543,12.4173,374.878,28.0548,-16.2909,35.9441,32.4974
1980-11-02 08:53:00,1,3.14286,-8.52857,0.9,0.951047,1,1,80260.4,52652.1,1701,0.65776432,-6.1951761,314.52438,94.860321,11.428,368.701,21.2091,-10.0691,36.4006,29.4826
1980-11-02 08:54:21,1,4.34286,-7.88571,0.414286,0.301019,1,1,79270.0,69870.3,1701,0.65775669,-6.1952467,314.51306,94.860703,12.4425,362.268,21.1414,-10.8881,36.1753,33.9629
1980-11-02 08:55:42,1,5.41429,-7.02857,0.957143,0.338062,1,1,82422.3,60824.6,1701,0.65774906,-6.1953173,314.50174,94.861099,12.2996,360.048,14.1215,-11.375,36.8876,31.6882
1980-11-02 08:57:03,1,4.41429,-7.61429,0.928571,0.270298,1,1,81293.9,69806.4,1701,0.65773386,-6.1954584,314.49078,94.861877,12.7928,362.028,19.8278,-14.177,36.6342,33.9473
1980-11-02 08:58:24,1,3.21429,-8.12857,1.62857,0.604406,1,1,81378.6,50347.4,1701,0.65772623,-6.195529,314.47556,94.862259,11.2889,368.684,19.0515,-18.4992,36.6533,28.8301
1980-11-02 08:59:45,1,3.41429,-7.9,2.62857,0.312332,1,1,77381.7,72157.2,1701,0.6577186,-6.1956005,314.46423,94.862656,12.9148,365.903,18.731,-23.4594,35.7419,34.5142
1980-11-02 09:01:06,1,1.84286,-8.11429,3.1,0.441704,1,1,111952.0,80800.6,1701,0.6577034,-6.1957407,314.45328,94.863434,13.3536,372.307,18.3433,-25.9728,42.9906,36.5229
1980-11-02 09:02:27,1,0.742857,-7.9,4.02857,0.802801,1,1,109075.0,61829.0,1701,0.65769577,-6.1958113,314.44196,94.863831,13.0023,379.45,15.9473,-29.8369,42.4346,31.9488